Skip Page Navigation
NASA JPL Caltech
NASA Logo - Jet Propulsion Laboratory + View the NASA Portal
+ Near-Earth Object (NEO) Program
Search JPL
JPL Home Earth Solar System Stars & Galaxies Technology
JPL Solar System Dynamics
BODIES ORBITS EPHEMERIDES TOOLS PHYSICAL DATA DISCOVERY FAQ SITE MAP
JPL Small-Body Database Browser
Search: [ help ]  
(2010 WW8)
Classification: Apollo [NEO]          SPK-ID: 3552659
Ephemeris | Orbit Diagram | Orbital Elements | Physical Parameters ]

[ hide orbit diagram ]
Orbit Diagram
Note: Make sure you have Java enabled on your browser to see the applet. This applet is provided as a 3D orbit visualization tool. The applet was implemented using 2-body methods, and hence should not be used for determining accurate long-term trajectories (over several years or decades) or planetary encounter circumstances. For accurate long-term ephemerides, please instead use our Horizons system.
Orbit Viewer

Additional Notes: the orbits shown in the applet are color coded. The planets are white lines, and the asteroid/comet is a blue line. The bright white line indicates the portion of the orbit that is above the ecliptic plane, and the darker portion is below the ecliptic plane. Likewise for the asteroid/comet orbit, the light blue indicates the portion above the ecliptic plane, and the dark blue the portion below the ecliptic plane.

Orbit Viewer applet originally written and kindly provided by Osamu Ajiki (AstroArts), and further modified by Ron Baalke (JPL).


Orbital Elements at Epoch 2455530.5 (2010-Nov-30.0) TDB
Reference: JPL 4 (heliocentric ecliptic J2000)
 Element Value Uncertainty (1-sigma)   Units 
e .3111002830186859 0.041725  
a 1.467902492453553 0.094688 AU
q 1.011237611607418 0.0040959 AU
i 1.732464625937273 0.69247 deg
node 252.456537356231 0.87039 deg
peri 177.2173371141597 17.645 deg
M 359.0423556997175 8.3207 deg
tp 2455532.228008864853
(2010-Dec-01.72800886)
15.075 JED
period 649.597341271266
1.78
62.854
0.1721
d
yr
n .554189460343969 0.053623 deg/d
Q 1.924567373299688 0.12415 AU
  Orbit Determination Parameters
   # obs. used (total)      11  
   first obs. used      2010-11-30  
   last obs. used      2010-11-30  
   planetary ephem.      DE405  
   SB-pert. ephem.      SB405-CPV-2  
   condition code      9  
   fit RMS      .74729  
   data source      ORB  
   producer      Otto Matic  
   solution date      2011-Sep-14 21:01:09  

Additional Information
 Earth MOID = .0251888 AU 
 T_jup = 4.554 
[ show covariance matrix ]

Ephemeris | Orbit Diagram | Orbital Elements | Physical Parameters ]

Physical Parameter Table
Parameter Symbol Value Units Sigma Reference Notes
absolute magnitude H 26.907 mag .35484 4 autocmod 2.5a
Ephemeris | Orbit Diagram | Orbital Elements | Physical Parameters ]
ABOUT SSD CREDITS/AWARDS PRIVACY/COPYRIGHT GLOSSARY LINKS
FirstGov 2013-May-19 18:51 UT
(server date/time)  
NASA Home Page
Site Manager:   Donald K. Yeomans
Webmaster  Alan B. Chamberlin